User: anonymous   Login
Location: Houston
(29.7630°N, 95.3630°W)
Time: 02:08:52
(UTC-05:00)
Language:

ISS - Orbit

View from above orbital plane
View from above orbital plane
View from above satellite
View from above satellite

Ground track
Ground track

The orbit data is extracted from the following two-line orbital elements,

1 25544U 98067A   16120.94440009  .00004732  00000-0  77992-4 0  9994
2 25544  51.6443 298.6798 0002004  81.2024   9.9289 15.54375232997477
Epoch (UTC): 29 April 2016 22:39:56
Eccentricity: 0.0002004
inclination: 51.6443°
perigee height: 402 km
apogee height: 405 km
right ascension of ascending node: 298.6798°
argument of perigee: 81.2024°
revolutions per day: 15.54375232
mean anomaly at epoch: 9.9289°
orbit number at epoch: 99747

The dashed part of the orbit path shows where the satellite is in the earth's shadow,  

DLR